Location: Kosice
(48.7167°N, 21.2500°E)
Time: 02:04:32
(UTC+01:00)

ISS - Pass Details

Date: 01 February 2021
Orbit: 417 x 422 km, 51.6° (Epoch: 06 March)

Event Time Altitude Azimuth Distance (km) Brightness Sun altitude
Rises 18:53:44 0° 290° (WNW) 2,377 1.3 -23.3°
Reaches altitude 10° 18:55:54 10° 283° (WNW) 1,510 0.1 -23.6°
Enters shadow 18:58:32 37° 240° (WSW) 677 -2.3 -24.1°
